YMMLYLHI

Guest
Details From YMML - Melbourne Intl
To YLHI - Lord Howe Island
Flight Number -
Tags decoded
Created
Modified
Stats Distance 793 nm / 1,469 km
Max Altitude 0 ft / 0 m
Waypoints 2
Social Downloads 3
Likes 0
Share

Download

Looking for another format? Having issues loading an existing format? Contact us
Advertisement - Login to hide

Notes

Requested: YMML YLHI

Route

YMML YLHI

ID Type Via Altitude (ft/m) Position (lat/lon) Dist (leg/tot) Name
O YMML APT - 0 / 0 -37.66530 / 144.83667 - / 0 nm Melbourne Intl
O YLHI APT - 0 / 0 -31.53840 / 159.07599 793 / 793 nm Lord Howe Island

Altitude Profile

Advertisement - Login to hide

Weather


0- 5 10 15 20 25 30 35+ Temperature / °C

Clouds and Precipitation
Forecast for 2021-07-31 06:00 UTC. Updated 4 hours ago

Ground ~20,000 ft ~40,000 ft Winds

YMML

Details ICAO YMML (MEL)
Name Melbourne Intl
Region Australia
Timezone Australia/Melbourne (UTC+10.0)
Stats Elevation 433 ft / 132 m (AMSL)
Location -37.665500° 144.837000°
Runways 2
Magnetic Variation 11.537° E

METAR

YMML 310730Z 01016KT 9999 FEW034 BKN100 14/07 Q1002

Decode

TAF

TAF AMD YMML 310523Z 3106/0112 01020G30KT CAVOK FM310800 36018G30KT 9999 -RA FEW040 FM311100 26016G28KT 9999 -RA SCT025 BKN040 FM311300 27012KT 9999 -RA SCT020 BKN030 FM311500 32008KT 9999 NSW FEW040 FM010100 25012KT 9999 FEW040 FM010900 34007KT CAVOK INTER 3109/3111 VRB25G40KT 4000 SHRA SCT020 BKN030 TEMPO 3111/3113 5000 RA SCT015 BKN025

Decode

Departure Runways

ID Width Length Bearing (true/mag) Surface Threshold Overrun Markings Lighting
09 148 ft / 45 m 7,513 ft / 2,290 m 94.00° / 82.46° ASPHALT 0 ft / 0 m 197 ft / 60 m PREC-APP CENTERLINE EDGE THRESHOLD
16 155 ft / 47 m 12,012 ft / 3,661 m 171.60° / 160.06° ASPHALT 0 ft / 0 m 200 ft / 61 m PREC-APP CENTERLINE EDGE THRESHOLD CALVERT-ILS TDZ
27 148 ft / 45 m 7,513 ft / 2,290 m 273.98° / 262.45° ASPHALT 0 ft / 0 m 174 ft / 53 m PREC-APP CENTERLINE EDGE THRESHOLD CALVERT-ILS TDZ
34 155 ft / 47 m 12,012 ft / 3,661 m 351.60° / 340.06° ASPHALT 0 ft / 0 m 200 ft / 61 m PREC-APP CENTERLINE EDGE THRESHOLD ODALS

YLHI

Details ICAO YLHI (LDH)
Name Lord Howe Island
Region Australia
Timezone Unknown
Stats Elevation 16 ft / 5 m (AMSL)
Location -31.538400° 159.076000°
Runways 1
Magnetic Variation 14.144° E

METAR

YLHI 310730Z AUTO 00000KT 9999 // NCD 11/08 Q1019 RF00.0/000.0

Decode

TAF

TAF YLHI 310518Z 3106/0106 25007KT 9999 FEW045 FM310900 33004KT 9999 FEW040 FM312000 35012KT 9999 FEW030 FM010100 34018G28KT 9999 FEW030

Decode

Destination Runways

ID Width Length Bearing (true/mag) Surface Threshold Overrun Markings Lighting
10 98 ft / 30 m 2,902 ft / 885 m 114.47° / 100.32° ASPHALT 0 ft / 0 m 194 ft / 59 m APP
28 98 ft / 30 m 2,902 ft / 885 m 294.46° / 280.32° ASPHALT 328 ft / 100 m 200 ft / 61 m APP

Popular Alternatives